This demonstration page uses our WeatherBlox Daily Observations layout. Learn more.

40.92945, -100.16068

Hourly Observations for June 20, 2017

Temp ( °F °C ) Dew Point ( °F °C ) Humidity (%) Winds ( mph kmh ) Pressure ( in mb ) Visibility ( mi km ) Precip ( " mm )
12:15 am 00:15 Clear 61 16.1 53 11.4 74 74 Calm 30 1016 10 16.0934 0 0
12:35 am 00:35 Clear 60 15.7 53 11.7 77 77 Calm 30 1016 10 16.0934 0 0
12:55 am 00:55 Clear 60 15.5 53 11.6 78 78 Calm 30 1016 10 16.0934 0 0
1:15 am 01:15 Clear 62 16.6 53 11.5 72 72 Calm 30 1016 10 16.0934 0 0
1:35 am 01:35 Clear 58 14.5 52 11.2 81 81 Calm 30 1016 7 11.26538 0 0
1:55 am 01:55 Clear 57 13.9 52 11.1 83 83 NNW 6 9 30 1016 10 16.0934 0 0
2:15 am 02:15 Clear 59 14.8 52 11.3 80 80 WNW 5 7 30 1016 10 16.0934 0 0
2:35 am 02:35 Clear 57 14 52 11 82 82 WSW 3 6 30 1016 10 16.0934 0 0
2:55 am 02:55 Clear 57 13.9 52 10.9 82 82 SSW 6 9 30 1016 10 16.0934 0 0
3:15 am 03:15 Clear 57 13.8 52 10.9 83 83 WSW 3 6 30 1016 10 16.0934 0 0
3:35 am 03:35 Clear 56 13.5 52 11 85 85 NW 6 9 30 1016 10 16.0934 0 0
3:55 am 03:55 Clear 55 12.6 51 10.5 87 87 NW 3 6 30.03 1017 10 16.0934 0 0
4:15 am 04:15 Clear 55 13 52 11.1 88 88 WNW 5 7 30.03 1017 10 16.0934 0 0
4:35 am 04:35 Clear 54 12.1 51 10.4 89 89 WNW 3 6 30.03 1017 10 16.0934 0 0
4:55 am 04:55 Clear 55 12.5 51 10.6 88 88 Calm 30.03 1017 10 16.0934 0 0
5:15 am 05:15 Clear 56 13.2 52 11.2 88 88 WNW 3 6 30.03 1017 10 16.0934 0 0
5:35 am 05:35 Clear 55 13 51 10.8 87 87 WNW 5 7 30.03 1017 10 16.0934 0 0
5:55 am 05:55 Clear 55 13 51 10.5 85 85 WNW 5 7 30.03 1017 10 16.0934 0 0
6:15 am 06:15 Sunny 55 12.7 50 9.9 83 83 WNW 3 6 30.03 1017 10 16.0934 0 0
6:35 am 06:35 Sunny 54 12.3 50 10 86 86 W 3 6 30.03 1017 10 16.0934 0 0
6:55 am 06:55 Sunny 56 13.2 52 11.1 87 87 Calm 30.03 1017 10 16.0934 0 0
7:15 am 07:15 Sunny 58 14.3 54 12.2 87 87 Calm 30 1016 10 16.0934 0 0
7:35 am 07:35 Sunny 61 16.2 55 12.6 79 79 Calm 30 1016 10 16.0934 0 0
7:55 am 07:55 Sunny 64 17.7 55 12.6 72 72 Calm 29.97 1015 10 16.0934 0 0
8:15 am 08:15 Sunny 66 18.9 56 13.5 71 71 Calm 29.97 1015 10 16.0934 0 0
8:35 am 08:35 Sunny 69 20.5 56 13.2 63 63 Calm 29.94 1014 10 16.0934 0 0
8:55 am 08:55 Sunny 72 22.4 57 13.7 58 58 Calm 29.94 1014 10 16.0934 0 0
9:15 am 09:15 Sunny 74 23.5 58 14.4 57 57 Calm 29.94 1014 10 16.0934 0 0
9:35 am 09:35 Sunny 77 25 56 13.6 49 49 W 5 7 29.91 1013 10 16.0934 0 0
9:55 am 09:55 Sunny 78 25.6 56 13.6 47 47 NW 3 6 29.91 1013 10 16.0934 0 0
10:15 am 10:15 Sunny 80 26.6 56 13.6 45 45 NW 3 6 29.91 1013 10 16.0934 0 0
10:35 am 10:35 Sunny 81 27 57 13.7 44 44 N 5 7 29.91 1013 10 16.0934 0 0
10:55 am 10:55 Sunny 82 28 57 13.9 42 42 NNW 5 7 29.88 1012 10 16.0934 0 0
11:15 am 11:15 Sunny 84 28.8 56 13.4 39 39 N 5 7 29.88 1012 10 16.0934 0 0
11:35 am 11:35 Sunny 85 29.6 57 14 38 38 N 5 7 29.88 1012 10 16.0934 0 0
11:55 am 11:55 Sunny 86 30 57 13.9 37 37 N 5 7 29.88 1012 10 16.0934 0 0
12:15 pm 12:15 Sunny 86 30.2 57 14 37 37 Calm 29.88 1012 10 16.0934 0 0
12:35 pm 12:35 Sunny 88 31.1 56 13.2 33 33 S 3 6 29.83 1010 10 16.0934 0 0
12:55 pm 12:55 Sunny 89 31.8 57 14 34 34 E 5 7 29.83 1010 10 16.0934 0 0
1:15 pm 13:15 Sunny 91 32.8 56 13.1 30 30 SW 3 6 29.83 1010 10 16.0934 0 0
1:35 pm 13:35 Sunny 92 33.3 55 13 29 29 ESE 7 11 29.83 1010 10 16.0934 0 0
1:55 pm 13:55 Sunny 92 33.6 55 12.6 28 28 SE 5 7 29.83 1010 10 16.0934 0 0
2:15 pm 14:15 Sunny 94 34.2 55 12.6 27 27 S 10 17 29.77 1008 10 16.0934 0 0
2:35 pm 14:35 Sunny 94 34.5 53 11.6 25 25 SE 6 9 29.77 1008 10 16.0934 0 0
2:55 pm 14:55 Sunny 94 34.6 52 11.1 24 24 SSE 6 9 29.77 1008 10 16.0934 0 0
3:15 pm 15:15 Sunny 95 35.2 53 11.7 24 24 SE 8 13 29.74 1007 10 16.0934 0 0
3:35 pm 15:35 Sunny 96 35.5 52 11.2 23 23 SE 3 6 29.74 1007 10 16.0934 0 0
3:55 pm 15:55 Sunny 95 35.2 53 11.7 24 24 Calm 29.74 1007 10 16.0934 0 0
4:15 pm 16:15 Sunny 96 35.4 53 11.7 24 24 ESE 5 7 29.71 1006 10 16.0934 0 0
4:35 pm 16:35 Sunny 97 36 54 12.2 24 24 SE 7 11 29.71 1006 10 16.0934 0 0
4:55 pm 16:55 Sunny 96 35.6 54 12 24 24 SE 8 13 29.71 1006 10 16.0934 0 0
5:15 pm 17:15 Sunny 96 35.5 56 13.1 26 26 ESE 9 15 29.68 1005 10 16.0934 0 0
5:35 pm 17:35 Sunny 96 35.6 56 13.2 26 26 ESE 13 20 29.68 1005 10 16.0934 0 0
5:55 pm 17:55 Sunny 96 35.4 55 13 26 26 ESE 10 17 29.68 1005 10 16.0934 0 0
6:15 pm 18:15 Sunny 94 34.4 57 14.1 29 29 E 12 19 29.68 1005 10 16.0934 0 0
6:35 pm 18:35 Sunny 93 34 56 13.6 29 29 E 14 22 29.68 1005 10 16.0934 0 0
6:55 pm 18:55 Sunny 93 33.9 56 13.5 29 29 ESE 10 17 29.68 1005 10 16.0934 0 0
7:15 pm 19:15 Sunny 92 33.5 56 13.3 29 29 ESE 15 24 29.68 1005 10 16.0934 0 0
7:35 pm 19:35 Sunny 91 32.9 56 13.6 31 31 ESE 13 20 29.71 1006 10 16.0934 0 0
7:55 pm 19:55 Sunny 91 32.5 56 13.1 31 31 ESE 13 20 29.71 1006 10 16.0934 0 0
8:15 pm 20:15 Partly Cloudy 89 31.8 55 12.8 31 31 ESE 12 19 29.71 1006 10 16.0934 0 0
8:35 pm 20:35 Mostly Cloudy 85 29.6 62 16.8 46 46 S 16 26 29.77 1008 10 16.0934 0 0
8:55 pm 20:55 Mostly Cloudy 82 28 65 18.5 56 56 SSE 8 13 29.77 1008 10 16.0934 0 0
9:15 pm 21:15 Partly Cloudy 80 26.6 65 18.3 60 60 SSE 9 15 29.77 1008 10 16.0934 0 0
9:35 pm 21:35 Partly Cloudy 78 25.5 65 18.5 65 65 SSE 9 15 29.8 1009 10 16.0934 0 0
9:55 pm 21:55 Clear 77 25.1 65 18.5 67 67 SSE 8 13 29.8 1009 10 16.0934 0 0
10:15 pm 22:15 Clear 76 24.3 66 18.7 71 71 SSE 7 11 29.8 1009 10 16.0934 0 0
10:35 pm 22:35 Clear 75 24.1 66 19 73 73 SSE 6 9 29.8 1009 10 16.0934 0 0
10:55 pm 22:55 Clear 75 23.9 66 18.7 73 73 SSE 6 9 29.8 1009 10 16.0934 0 0
11:15 pm 23:15 Clear 74 23.6 66 18.7 74 74 SE 6 9 29.83 1010 10 16.0934 0 0
11:35 pm 23:35 Clear 74 23.5 66 18.7 75 75 SE 7 11 29.8 1009 10 16.0934 0 0
11:55 pm 23:55 Clear 74 23.2 65 18.5 75 75 ESE 6 9 29.8 1009 10 16.0934 0 0

Powered by AerisWeather